Theta_e
295 296 296 296 295 295 291 285 275 288 291 277 279 278 281 285 283 288 285 285 285 284 285 279 278 278 280 284 284 280 283 280 271 272 275 276 275 276 276 271 270 272 274 276
297 296 296 296 296 295 288 276 280 287 287 271 269 275 277 279 280 283 282 283 285 286 283 281 284 284 286 286 285 285 283 279 273 275 275 274 270 276 278 277 276 271 271 277
296 296 296 296 296 296 287 280 272 275 283 279 275 272 273 275 279 279 283 284 283 282 281 285 283 282 285 283 285 292 289 281 278 276 277 276 273 271 277 276 271 277 277 279
296 296 296 296 296 296 286 274 271 274 270 272 272 273 275 274 273 279 279 279 278 275 276 279 280 283 285 283 286 286 286 279 281 282 281 277 278 274 275 276 278 274 280 279
295 295 295 295 296 296 285 275 270 271 272 275 273 274 272 273 274 275 273 273 274 276 274 275 276 276 280 281 279 281 283 279 280 281 283 284 279 278 278 278 278 278 279 278
295 295 294 294 294 293 284 283 282 277 273 267 268 268 272 273 276 277 278 276 274 273 276 278 279 281 281 281 279 280 280 279 279 277 281 280 274 280 280 277 277 278 275 280
294 294 294 294 293 293 287 285 283 276 267 268 269 274 275 274 275 274 277 278 275 277 282 282 281 280 280 280 279 283 279 278 279 276 276 271 281 285 285 283 285 284 284 286
293 293 293 293 293 293 286 288 283 277 271 272 273 273 274 275 276 275 276 278 280 281 280 272 266 263 269 275 279 278 282 278 275 273 273 277 280 278 277 278 275 275 275 276
293 293 292 293 292 293 287 285 288 282 274 268 276 273 273 271 271 269 273 279 280 280 274 268 266 263 267 265 269 278 281 282 276 274 272 269 275 276 278 277 272 274 275 274
292 292 291 292 292 292 288 283 287 283 275 276 277 271 269 274 273 268 269 271 269 276 260 259 264 264 269 263 261 269 271 275 273 274 272 271 275 276 277 273 270 275 275 274
292 291 292 292 292 291 287 283 287 284 277 277 278 278 272 271 269 267 267 270 265 262 261 259 259 265 267 265 268 268 265 267 268 270 269 267 276 275 271 273 276 275 274 274
292 291 291 291 292 291 291 283 286 287 281 279 282 282 283 281 278 277 274 269 263 269 260 260 267 264 265 258 259 273 267 270 267 269 270 275 276 275 277 277 276 275 273 273
290 290 291 291 291 292 291 286 282 284 280 278 278 276 281 283 282 283 273 269 276 268 274 266 264 264 267 266 260 263 273 276 271 268 273 273 273 273 273 274 273 273 272 271
290 290 290 291 291 292 292 279 282 282 277 267 271 280 279 282 283 282 282 280 279 277 274 270 266 264 275 271 271 270 271 273 268 270 273 272 270 269 270 271 271 270 270 269
290 290 290 290 291 292 284 280 285 283 279 270 268 278 279 278 278 281 281 281 274 275 273 269 268 269 272 273 270 267 268 265 268 267 267 268 269 268 267 267 266 267 266 266
289 290 290 290 290 291 279 270 282 283 283 267 263 271 272 275 276 279 279 278 275 277 270 267 269 277 275 268 262 265 265 263 261 262 262 264 267 266 264 264 264 264 263 264
289 289 289 289 290 282 271 271 281 286 285 267 262 262 268 271 271 267 266 271 272 274 270 268 267 270 272 268 266 262 260 260 260 260 260 264 263 263 262 263 262 261 260 261
289 289 288 287 286 284 276 278 284 281 269 263 255 259 262 266 261 263 263 264 264 266 263 258 260 262 258 259 258 259 259 259 261 259 258 258 260 260 260 260 259 257 258 260
288 286 285 279 271 265 268 284 280 273 267 256 250 251 254 263 258 260 264 263 260 257 259 258 260 252 258 255 256 256 256 256 256 257 257 257 256 257 258 256 254 254 255 256
284 274 266 261 265 282 277 266 261 260 254 254 251 249 252 261 257 256 259 259 256 255 257 260 257 254 252 256 254 254 255 256 256 251 253 250 252 254 254 254 254 254 254 254
267 263 258 268 276 266 257 255 255 251 253 247 246 249 250 259 252 249 258 253 253 253 256 255 250 253 251 251 253 256 256 255 254 254 255 254 253 252 252 253 253 253 252 252
273 276 269 262 257 255 256 247 249 248 253 246 249 250 252 250 255 249 251 251 253 252 248 253 251 254 251 250 251 252 252 252 251 249 251 251 251 251 251 251 250 250 251 251
264 260 257 256 253 255 252 249 250 250 244 243 244 248 248 249 251 245 248 250 252 248 248 251 252 249 249 250 249 249 250 248 247 248 249 250 250 250 248 249 250 249 248 249
257 256 256 256 252 252 251 252 252 251 248 245 247 242 246 242 247 243 247 248 247 247 247 250 248 250 250 248 245 243 252 250 250 251 252 252 252 252 252 251 251 250 249 248
259 257 258 253 252 243 241 238 244 245 249 250 245 244 248 242 244 243 245 247 246 249 252 249 252 251 248 250 251 251 252 252 252 253 253 253 253 254 254 254 253 251 250 249
255 251 253 245 250 248 242 240 243 244 249 246 245 241 243 243 242 245 247 245 248 251 246 250 247 248 250 251 253 252 252 252 252 252 252 252 253 252 252 252 252 251 250 249
252 255 243 251 250 254 251 248 248 249 247 246 241 246 250 244 242 243 245 249 251 250 249 246 246 250 251 250 249 250 249 251 251 252 252 252 251 250 250 249 250 250 250 250
Wind_Speed
23 22 22 24 25 26 9 4 5 5 5 6 4 6 8 5 18 8 8 8 22 12 14 6 5 10 8 7 10 11 6 3 5 9 2 2 2 6 7 7 7 5 2 12
23 22 24 22 22 24 2 3 5 5 2 4 8 8 12 13 18 17 7 7 6 14 24 14 15 11 4 11 10 9 8 2 1 2 2 4 5 6 5 2 3 9 9 8
23 22 22 21 22 22 3 3 5 5 3 1 5 12 18 9 13 13 14 12 5 14 19 11 16 5 3 3 6 11 11 7 12 12 7 5 6 6 9 4 3 12 12 10
22 24 24 23 23 23 3 1 5 2 4 7 7 6 10 17 10 4 15 6 14 8 6 9 12 8 10 2 4 3 6 8 15 21 10 3 6 5 10 14 24 9 24 16
23 22 22 24 25 24 2 3 2 2 4 7 6 5 5 14 12 5 11 7 18 13 7 10 6 11 8 7 4 8 3 5 9 13 20 23 17 12 12 23 25 19 29 21
25 24 25 22 24 20 3 2 4 4 8 3 2 6 5 8 6 5 2 8 13 17 12 19 19 13 13 16 7 2 4 6 9 20 15 12 12 23 22 7 8 15 16 22
24 26 27 28 24 21 2 3 3 3 5 4 5 9 12 12 11 13 8 7 7 8 12 17 14 15 16 14 16 11 5 1 4 7 5 21 7 12 21 25 25 14 17 17
26 25 26 27 26 28 5 2 3 2 4 6 8 13 9 11 11 10 8 7 8 3 5 6 8 6 6 6 12 10 15 8 4 4 6 3 6 5 4 6 4 11 8 12
25 26 27 26 28 26 6 3 3 4 3 6 9 10 10 10 5 6 6 6 3 5 2 3 5 5 3 7 10 6 12 14 9 4 5 7 4 5 6 5 5 9 10 11
25 26 27 29 28 27 12 4 4 6 4 8 7 7 6 5 3 3 3 7 6 2 2 3 4 6 3 5 4 6 4 5 14 13 10 1 13 10 5 4 5 4 5 5
24 26 27 26 27 24 13 6 7 3 5 16 10 12 10 2 2 5 5 4 5 4 2 4 4 3 2 3 5 3 1 3 4 6 5 2 15 5 6 5 4 2 0 2
26 25 28 27 27 24 20 6 3 5 8 14 3 10 16 14 9 4 3 4 3 4 4 2 1 3 2 4 5 4 4 2 1 4 3 1 6 10 6 3 2 2 4 8
24 26 27 28 28 27 21 2 3 5 3 3 2 3 3 3 7 5 4 3 5 1 3 3 4 4 1 3 6 2 3 3 3 4 4 4 4 6 7 7 6 5 6 8
25 26 28 28 28 26 21 1 0 4 3 1 6 3 3 7 5 10 9 9 2 2 2 2 4 3 5 4 5 4 5 4 4 3 6 6 3 4 4 4 5 7 7 8
25 26 28 28 27 24 5 1 3 3 4 3 5 4 4 7 8 5 5 7 3 2 2 2 5 3 2 5 2 4 2 3 3 3 5 4 5 5 5 3 5 7 11 12
26 26 27 27 24 16 3 5 2 6 4 1 3 3 4 6 7 4 3 4 3 3 3 4 3 4 4 3 3 6 7 6 4 2 4 4 7 6 8 6 7 8 9 11
27 27 27 23 17 3 3 5 7 16 2 3 5 6 4 6 3 3 3 3 1 2 2 3 2 3 2 1 2 4 4 4 3 4 7 3 3 2 10 8 9 9 8 9
28 28 24 15 5 5 1 3 13 5 4 5 3 6 6 7 5 4 2 3 3 3 1 3 1 3 2 2 2 2 4 5 3 5 3 5 8 9 6 4 6 8 11 12
28 24 13 3 6 4 4 19 5 5 5 4 4 3 5 7 3 3 4 2 3 2 0 2 3 3 4 1 1 0 1 1 5 8 8 7 6 9 8 5 5 8 11 9
20 6 6 5 3 15 7 9 6 7 7 6 3 2 4 4 4 5 4 2 1 2 4 3 2 4 2 3 4 4 4 4 2 4 6 4 5 6 9 10 9 9 11 12
5 5 1 4 12 5 6 4 5 4 5 3 2 2 2 4 2 4 2 3 2 2 6 2 3 5 4 4 6 6 6 6 6 6 9 8 10 12 13 13 11 11 11 12
5 8 4 5 6 5 7 2 4 4 4 4 1 2 1 5 3 3 4 2 3 6 2 4 5 3 3 4 8 8 7 7 9 6 10 11 11 12 12 12 11 12 12 11
4 5 5 4 4 4 6 4 5 2 3 3 2 3 1 5 4 2 4 2 6 1 4 6 5 3 5 8 5 8 7 7 6 9 8 11 12 10 9 14 13 12 11 10
3 4 5 5 4 6 7 6 6 3 4 3 2 2 2 1 4 0 2 5 3 4 2 7 3 6 6 5 4 2 9 6 8 11 12 13 13 14 13 13 12 12 13 13
3 4 6 8 2 1 1 1 3 2 2 3 3 3 2 3 3 1 3 6 5 7 6 4 5 6 4 5 5 7 8 8 9 11 11 13 14 14 14 12 11 11 12 12
3 1 1 1 2 2 1 2 2 3 4 3 4 3 4 4 3 2 8 4 8 5 5 5 2 5 5 6 7 7 8 9 11 11 12 12 12 12 14 14 13 13 12 13
4 5 0 1 1 2 3 4 4 4 4 3 4 3 10 2 2 5 6 8 5 5 4 4 5 6 7 6 6 7 7 10 10 11 11 11 9 9 11 14 13 12 12 13
Wind_Direction
338 333 335 337 338 336 19 314 303 280 356 326 295 267 259 271 285 296 291 274 263 276 262 211 234 226 236 141 146 161 196 121 183 198 231 333 272 209 166 141 227 244 168 251
331 334 336 340 339 339 34 272 290 298 108 266 293 288 282 295 317 273 282 266 268 269 259 273 232 227 256 162 170 172 180 224 281 269 357 3 209 197 225 142 92 208 150 259
340 341 341 345 338 335 66 306 305 316 317 275 271 299 298 322 331 302 332 277 271 261 271 267 256 268 275 278 217 193 164 164 182 222 232 133 188 206 197 158 143 235 229 228
346 345 348 344 340 340 77 208 269 213 302 306 299 328 310 304 330 11 355 301 7 5 304 271 271 285 235 278 301 275 158 213 204 230 210 202 193 171 183 204 235 200 251 241
343 345 344 344 345 345 212 221 176 315 242 259 280 274 252 298 311 348 319 356 349 348 333 313 323 349 315 232 6 177 185 246 183 236 233 241 233 216 217 207 227 248 267 275
333 337 334 337 342 348 287 264 269 175 248 219 191 240 237 267 280 273 287 338 339 330 335 323 303 286 271 273 288 288 199 219 208 237 235 232 236 221 219 187 210 210 237 251
333 330 333 331 335 338 4 285 275 268 270 197 224 264 288 284 279 269 259 278 270 241 292 312 280 251 250 247 258 230 284 322 261 247 158 226 221 212 218 222 236 243 261 285
334 325 329 327 326 326 329 324 277 256 263 245 282 261 268 293 285 270 246 228 225 269 279 324 316 331 342 261 241 234 217 217 247 255 235 324 307 52 80 169 98 26 350 356
330 329 326 330 318 324 311 295 267 267 254 246 250 263 245 252 258 308 263 269 245 249 187 124 296 321 274 304 322 210 225 220 223 240 249 229 49 347 316 210 138 24 22 17
330 327 324 330 330 320 313 283 215 259 258 260 204 217 217 186 199 237 304 305 327 49 118 143 213 253 207 279 237 301 358 324 243 225 233 204 337 308 305 201 74 50 44 22
325 325 332 331 318 319 323 291 282 265 281 272 223 236 225 54 149 213 251 12 327 5 64 139 229 216 269 319 295 297 223 314 314 334 318 206 340 31 48 111 140 140 274 339
326 335 332 334 333 329 326 305 248 264 246 276 295 241 230 214 199 187 210 195 188 238 67 354 283 358 318 191 272 329 289 85 300 29 11 40 48 113 112 91 110 36 336 351
333 331 332 336 335 327 321 255 312 308 284 318 342 311 302 227 207 193 215 264 226 291 177 177 230 243 185 231 250 199 210 172 168 38 139 154 100 53 42 31 27 5 353 334
331 330 332 333 330 321 319 174 229 356 291 77 291 318 15 314 265 233 229 247 120 121 109 194 214 200 233 274 276 219 202 147 198 247 84 101 99 76 44 25 7 343 340 334
329 326 328 331 327 322 18 171 136 55 338 283 280 312 6 342 325 262 219 231 148 204 208 222 250 227 186 237 92 266 47 212 171 228 32 340 72 97 39 15 357 341 338 328
328 325 327 329 323 345 30 5 327 353 346 59 328 297 334 321 334 342 239 201 199 207 182 230 257 238 229 218 195 65 55 47 17 44 329 308 321 114 34 352 339 336 324 317
326 325 327 325 320 39 119 162 318 323 277 84 331 335 324 323 319 343 2 346 308 201 218 230 218 276 328 225 258 82 41 11 66 30 317 226 35 328 336 328 326 323 301 285
326 326 322 320 3 70 342 318 356 358 89 59 71 282 6 6 319 335 350 355 6 351 230 349 215 352 48 259 118 2 356 321 152 16 8 259 295 299 295 310 299 300 302 308
329 323 322 43 35 27 259 313 30 41 86 113 78 113 271 352 307 287 335 52 339 288 149 269 71 312 227 205 162 215 327 350 291 308 287 264 245 273 281 276 279 276 288 289
331 17 39 351 263 307 338 9 19 16 348 24 100 351 280 354 351 305 349 14 263 317 263 322 87 257 297 241 230 252 284 285 313 331 327 319 281 285 294 290 282 275 281 286
20 22 288 251 332 47 31 28 64 325 14 9 239 168 300 334 50 264 353 278 292 14 264 110 304 280 230 219 228 237 239 248 248 234 265 268 265 280 283 282 274 274 272 270
262 303 6 4 32 29 76 295 328 63 234 310 113 271 260 294 360 76 325 241 30 240 307 57 284 256 242 209 238 250 250 258 263 236 261 265 257 259 265 271 270 263 266 271
29 47 27 44 308 28 123 249 297 296 209 265 345 317 6 340 35 21 34 23 236 8 42 232 231 268 269 249 259 269 255 254 252 270 254 260 266 266 255 270 266 267 269 267
96 123 281 161 272 239 184 182 181 210 120 148 140 312 62 277 11 254 64 247 51 2 347 238 260 233 248 264 252 303 289 275 266 274 278 274 274 274 270 262 270 275 272 272
205 109 235 218 216 39 194 242 97 230 134 118 57 25 66 331 13 51 341 354 266 208 228 228 235 243 257 282 278 281 293 291 285 291 294 291 292 292 292 288 278 269 271 273
138 201 159 153 43 256 262 184 195 192 123 74 58 107 49 282 151 49 228 127 230 247 217 230 249 260 263 268 279 278 275 279 285 286 286 286 288 291 291 294 289 282 273 271
203 242 225 177 360 159 151 147 173 149 101 167 122 124 220 97 23 264 198 215 221 212 242 231 224 250 269 268 276 278 276 283 286 287 291 289 289 289 290 289 289 284 277 271